[[{"header":{"parameterUnit":"m.s-1","parameterCategory":2,"la1":30.2991,"la2":30.254,"lo1":-89.0895,"lo2":-89.0444,"dy":0.0017,"dx":0.0017,"nx":28,"ny":28,"refTime":"2024-08-09T03:00:00:Z","depth":"0","parameterNumber":2,"parameterNumberName":"U-component_of_CURRENTS"},"data":[0,0,0,0,0,0,0,0,0,0,0,0,0,0,0,0,0,0,0,0,0,0,0,0,0,0,0,0,0,0,0,0,0,0,0,0,0,0,0,0,0,0,0,0,0,0,0,0,0,0,0,0,0,0,0,0,0,0,0.1688,0.1684,0,0.1447,0.1445,0.1443,0.1327,0.1326,0.1325,0.1324,0.1456,0.146,0.1464,0,0,0,0,0,0,0,0,0,0,0,0,0,0.1948,0.1945,0.1688,0.1684,0.168,0.1447,0.1445,0.1442,0.1327,0.1326,0.1325,0.1324,0.1454,0.1459,0.1464,0,0,0,0,0,0,0,0,0,0,0,0,0,0.1794,0.1944,0.1689,0.1587,0.1575,0.1448,0.1445,0.1442,0.1327,0.1326,0.1325,0.1323,0.1452,0.1459,0.1465,0.1531,0,0,0.1485,0.1488,0,0,0,0,0,0,0,0,0.1803,0.1786,0.1606,0.1594,0.1579,0.1406,0.1583,0.1487,0.1327,0.1432,0.1324,0.1323,0.1468,0.1473,0.144,0.1537,0.1543,0.1485,0.1489,0.1492,0.1494,0,0,0,0,0,0,0,0.1814,0.1795,0.1603,0.1601,0.1585,0.1517,0.1497,0.1563,0.1476,0.1423,0.1411,0.1368,0.1465,0.1434,0.1443,0.1545,0.1485,0.1491,0.1495,0.1498,0.1837,0.1842,0,0,0,0,0,0,0.1829,0.1806,0.161,0.1595,0.1679,0.1514,0.149,0.1472,0.1466,0.1458,0.137,0.1364,0.1423,0.1436,0.1448,0.1648,0.1492,0.1498,0.1502,0.1832,0.1838,0.1843,0,0,0,0,0,0,0.1836,0.1815,0.162,0.1685,0.1654,0.151,0.149,0.1467,0.1435,0.1419,0.142,0.1359,0.1423,0.1439,0.1541,0.1648,0.1501,0.1507,0.1826,0.1834,0.1841,0.1972,0,0,0,0,0,0,0.1846,0.182,0.1841,0.1687,0.165,0.1607,0.149,0.1463,0.1405,0.1396,0.1413,0.1421,0.1423,0.1531,0.1547,0.1654,0.1512,0.1819,0.1829,0.1838,0.1961,0.1983,0.2002,0,0,0,0,0,0.1856,0.1909,0.1844,0.1821,0.1675,0.161,0.159,0.1486,0.1407,0.1444,0.1436,0.1421,0.1604,0.154,0.1558,0.1669,0.1814,0.1826,0.1838,0.1952,0.1979,0.2002,0,0,0,0,0,0,0.2037,0.1896,0.1823,0.1829,0.1743,0.1588,0.1605,0.1499,0.1506,0.1514,0.1474,0.1488,0.1618,0.1633,0.1561,0.1799,0.1714,0.173,0.1795,0.1821,0.1841,0.1856,0.1517,0,0,0,0,0,0.208,0.2085,0.1928,0.1939,0.1906,0.1749,0.1709,0.1634,0.1589,0.1583,0.1565,0.1601,0.168,0.1736,0.1795,0.1927,0.1924,0.2018,0.2038,0.2055,0.2084,0.2146,0.2173,0.1881,0.1881,0.1881,0,0,0.2135,0.2071,0.2062,0.1978,0.1902,0.1893,0.1729,0.17,0.1709,0.1613,0.1665,0.1669,0.1727,0.1864,0.1928,0.1892,0.2142,0.207,0.2083,0.2103,0.216,0.2188,0.2213,0.1889,0.1888,0.1887,0,0,0.2253,0.2212,0.224,0.2196,0.2102,0.203,0.2024,0.1884,0.186,0.1902,0.184,0.1902,0.1994,0.2043,0.209,0.2271,0.2235,0.2299,0.2433,0.2493,0.2516,0.2537,0.2574,0.2597,0.2324,0.2324,0.2324,0,0.232,0.2315,0.2245,0.2265,0.2228,0.21,0.2108,0.21,0.2009,0.2011,0.197,0.2058,0.2095,0.2249,0.2311,0.2321,0.2326,0.2324,0.2516,0.2536,0.2554,0.2588,0.2611,0.2332,0.2331,0.233,0.2329,0,0.2422,0.243,0.2461,0.2438,0.2432,0.2428,0.2372,0.2389,0.2331,0.2276,0.2369,0.2385,0.2426,0.247,0.2456,0.2617,0.2567,0.2514,0.2438,0.2591,0.2617,0.2639,0.2343,0.234,0.2338,0.2336,0,0,0.2474,0.2513,0.2511,0.2509,0.2501,0.2483,0.259,0.2586,0.2605,0.2614,0.2638,0.2777,0.2706,0.2754,0.2727,0.2799,0.2933,0.2725,0.2725,0.2739,0.3051,0.3055,0.3077,0.2894,0.2899,0.2903,0.3016,0,0.253,0.2597,0.261,0.2667,0.2669,0.2657,0.2734,0.2757,0.2764,0.2787,0.2836,0.2866,0.2843,0.2835,0.2922,0.2902,0.2997,0.2907,0.2924,0.2926,0.289,0.3106,0.3052,0.3153,0.3037,0.304,0.3043,0,0.2555,0.26,0.2656,0.2708,0.2709,0.2752,0.2807,0.2862,0.2941,0.2946,0.3017,0.2995,0.3113,0.3041,0.3175,0.3107,0.312,0.3118,0.3121,0.3097,0.2972,0.2986,0.3196,0.3072,0.3075,0.3073,0.307,0,0.2518,0.2603,0.2641,0.2655,0.2728,0.2768,0.2811,0.2889,0.292,0.3018,0.3031,0.3153,0.3167,0.3248,0.3264,0.3217,0.338,0.33,0.3337,0.3333,0.3284,0.327,0.3359,0.3438,0.3438,0.3437,0.3437,0,0.2509,0.253,0.262,0.263,0.267,0.2741,0.2786,0.2855,0.2944,0.2979,0.3073,0.3113,0.3216,0.3295,0.3327,0.3419,0.3442,0.3425,0.3398,0.3331,0.3321,0.3202,0.3103,0.3442,0.3441,0.344,0.3439,0,0.2424,0.2489,0.2517,0.2612,0.2634,0.2651,0.2733,0.2774,0.2873,0.2929,0.2956,0.3099,0.3216,0.3322,0.3437,0.3478,0.348,0.3581,0.3493,0.3457,0.3378,0.3289,0.3273,0.3213,0.3668,0.3669,0.367,0,0.238,0.239,0.2462,0.2472,0.2504,0.2549,0.2576,0.2701,0.2747,0.2899,0.2918,0.3072,0.3157,0.3373,0.3506,0.3643,0.3498,0.3652,0.3589,0.3441,0.3321,0.316,0.3098,0.3567,0.3567,0.3567,0.3567,0,0.2288,0.2305,0.2339,0.2361,0.2384,0.2415,0.2477,0.2505,0.265,0.2716,0.2821,0.2912,0.3167,0.3316,0.3537,0.3608,0.3496,0.3659,0.3539,0.332,0.312,0.3023,0.3393,0.3568,0.3568,0.3568,0.3568,0.3568,0.219,0.2188,0.223,0.2248,0.226,0.2274,0.228,0.2362,0.2422,0.252,0.2675,0.2793,0.309,0.3412,0.3462,0.3548,0.3495,0.3506,0.3431,0.3299,0.3195,0.3579,0.3696,0.3696,0.3697,0.3697,0.3698,0,0.2072,0.2106,0.2122,0.2127,0.2095,0.2158,0.2203,0.2213,0.224,0.2371,0.2468,0.2724,0.2952,0.3167,0.3387,0.3323,0.3217,0.3255,0.3007,0.2977,0.3366,0.3316,0.3316,0.3316,0.3316,0.3316,0.3317,0.3317,0.2012,0.2003,0.2041,0.1975,0.1971,0.193,0.1947,0.1975,0.2056,0.2142,0.2251,0.24,0.2702,0.2972,0.3032,0.3015,0.2795,0.2747,0.2694,0.2935,0.2951,0.2966,0.2899,0.2812,0.2811,0.2258,0.2254,0.225]},{"header":{"parameterUnit":"m.s-1","parameterCategory":2,"la1":30.2991,"la2":30.254,"lo1":-89.0895,"lo2":-89.0444,"dy":0.0017,"dx":0.0017,"nx":28,"ny":28,"refTime":"2024-08-09T03:00:00:Z","depth":"0","parameterNumber":3,"parameterNumberName":"V-component_of_CURRENTS"},"data":[0,0,0,0,0,0,0,0,0,0,0,0,0,0,0,0,0,0,0,0,0,0,0,0,0,0,0,0,0,0,0,0,0,0,0,0,0,0,0,0,0,0,0,0,0,0,0,0,0,0,0,0,0,0,0,0,0,0,-0.017,-0.0171,0,-0.0205,-0.0205,-0.0205,-0.0231,-0.0232,-0.0232,-0.0233,-0.011,-0.0107,-0.0103,0,0,0,0,0,0,0,0,0,0,0,0,0,-0.0036,-0.0039,-0.017,-0.0171,-0.0171,-0.0205,-0.0205,-0.0205,-0.0231,-0.0232,-0.0233,-0.0233,-0.0112,-0.0107,-0.0102,0,0,0,0,0,0,0,0,0,0,0,0,0,-0.0081,-0.004,-0.017,-0.0192,-0.0194,-0.0205,-0.0205,-0.0205,-0.0231,-0.0232,-0.0233,-0.0234,-0.0113,-0.0107,-0.0102,-0.0047,0,0,-0.0084,-0.0082,0,0,0,0,0,0,0,0,-0.0079,-0.0086,-0.0188,-0.019,-0.0193,-0.0219,-0.0114,-0.0146,-0.0231,-0.0212,-0.0233,-0.0234,-0.0134,-0.0127,-0.0127,-0.0041,-0.0036,-0.0084,-0.008,-0.0078,-0.0076,0,0,0,0,0,0,0,-0.0076,-0.0084,-0.0179,-0.0188,-0.0192,-0.017,-0.0178,-0.012,-0.0161,-0.0214,-0.0217,-0.0228,-0.0134,-0.0133,-0.0124,-0.0034,-0.0084,-0.0079,-0.0075,-0.0073,0.0207,0.021,0,0,0,0,0,0,-0.0084,-0.0081,-0.0178,-0.0181,-0.0142,-0.0172,-0.0181,-0.0206,-0.0165,-0.0163,-0.0227,-0.0229,-0.0142,-0.0131,-0.012,0.001,-0.0078,-0.0072,-0.0069,0.0203,0.0207,0.0212,0,0,0,0,0,0,-0.0082,-0.0093,-0.0177,-0.0134,-0.0144,-0.0175,-0.0202,-0.0206,-0.0207,-0.0178,-0.0171,-0.0225,-0.0142,-0.0128,-0.0025,0.0012,-0.007,-0.0064,0.0198,0.0204,0.021,0.023,0,0,0,0,0,0,-0.0078,-0.0092,-0.0091,-0.0136,-0.0147,-0.0171,-0.0202,-0.0206,-0.0215,-0.0218,-0.0173,-0.0164,-0.0142,-0.0034,-0.002,0.0018,-0.006,0.0193,0.0201,0.0208,0.0224,0.0235,0.0245,0,0,0,0,0,-0.0073,-0.0059,-0.0091,-0.0101,-0.0152,-0.0171,-0.0173,-0.0194,-0.0214,-0.0201,-0.0147,-0.0165,0.0023,-0.0025,-0.001,0.003,0.0189,0.0199,0.0207,0.0219,0.0233,0.0245,0,0,0,0,0,0,0.0005,-0.0063,-0.0098,-0.0106,-0.0137,-0.0177,-0.0157,-0.019,-0.0145,-0.0137,-0.0112,-0.0095,0.0009,0.0033,-0.0021,0.0141,0.0103,0.0115,0.0107,0.012,0.0131,0.0124,-0.0055,0,0,0,0,0,0.0017,0.0008,-0.0059,-0.0062,-0.0076,-0.012,-0.0125,-0.0154,-0.0137,-0.0123,-0.0086,-0.0022,0.0059,0.0097,0.0168,0.0255,0.0236,0.0296,0.0307,0.0315,0.0326,0.0342,0.0353,0.0241,0.0241,0.0241,0,0,0.0044,0.0009,0.0002,-0.0045,-0.0067,-0.0058,-0.0123,-0.0133,-0.0108,-0.0108,-0.0022,0.002,0.0095,0.0197,0.0245,0.0219,0.0335,0.0327,0.0332,0.0339,0.0352,0.0362,0.0371,0.0247,0.0246,0.0245,0,0,0.01,0.0062,0.0071,0.0057,0.0015,-0.0005,-0.001,-0.0045,-0.0039,0.0028,0.0051,0.0122,0.0228,0.0287,0.0332,0.0452,0.0395,0.047,0.051,0.0524,0.0532,0.0538,0.0494,0.0497,0.0469,0.0469,0.0469,0,0.0133,0.0124,0.0077,0.009,0.009,0.0023,0.004,0.0051,0.0061,0.0086,0.007,0.0231,0.0277,0.0407,0.0444,0.0472,0.0444,0.044,0.0531,0.0537,0.0543,0.0497,0.0499,0.0471,0.0471,0.047,0.047,0,0.019,0.0191,0.0205,0.0197,0.0201,0.0203,0.0189,0.0211,0.0204,0.0206,0.0307,0.0367,0.0452,0.048,0.0498,0.0583,0.0534,0.0536,0.0476,0.0554,0.0502,0.0504,0.0474,0.0473,0.0472,0.0472,0,0,0.0239,0.0236,0.0243,0.0251,0.0247,0.0249,0.0313,0.0334,0.037,0.04,0.046,0.058,0.0563,0.0617,0.0636,0.0648,0.0649,0.0603,0.0603,0.0521,0.0627,0.0604,0.0603,0.0647,0.0649,0.065,0.0558,0,0.0289,0.032,0.0316,0.0373,0.0387,0.0373,0.0435,0.0458,0.0476,0.0531,0.0572,0.0645,0.0631,0.0655,0.0674,0.0675,0.0662,0.0671,0.06,0.0597,0.0536,0.0609,0.0595,0.0514,0.0559,0.0559,0.0559,0,0.0348,0.0358,0.0397,0.0433,0.0439,0.0477,0.0533,0.0573,0.0637,0.0649,0.0708,0.0723,0.0787,0.0741,0.0754,0.0751,0.0692,0.0665,0.066,0.0638,0.0581,0.0457,0.0515,0.0373,0.0562,0.0561,0.0561,0,0.039,0.0427,0.0452,0.0465,0.0497,0.0529,0.0555,0.0612,0.0649,0.0716,0.0741,0.0806,0.0834,0.0805,0.0759,0.0744,0.0731,0.0704,0.062,0.0614,0.0593,0.0584,0.0479,0.0686,0.0686,0.0687,0.0687,0,0.0445,0.0482,0.0471,0.0489,0.054,0.0557,0.0622,0.0655,0.0713,0.0772,0.0795,0.0852,0.0847,0.0843,0.0777,0.0715,0.0744,0.0639,0.061,0.0599,0.0593,0.0462,0.0394,0.0683,0.0684,0.0685,0.0685,0,0.0513,0.0493,0.0526,0.0543,0.0555,0.0593,0.0646,0.0695,0.0735,0.0811,0.0832,0.089,0.0892,0.0858,0.0811,0.0739,0.0599,0.0632,0.0594,0.0565,0.036,0.0296,0.0193,0.0136,0.0523,0.0522,0.0521,0,0.0553,0.0565,0.0559,0.0564,0.0576,0.0624,0.0659,0.0704,0.0752,0.0839,0.0881,0.0914,0.0961,0.0883,0.0781,0.0663,0.0556,0.0533,0.0529,0.036,0.0267,0.0227,0.0184,0.048,0.0479,0.0478,0.0477,0,0.063,0.0607,0.0619,0.0617,0.0636,0.0675,0.0726,0.0765,0.0825,0.0883,0.0967,0.1013,0.0966,0.0902,0.0749,0.0645,0.0437,0.0512,0.0367,0.0261,0.0184,0.0112,0.0479,0.0471,0.0471,0.0472,0.0472,0.0472,0.0672,0.0688,0.0665,0.068,0.0696,0.073,0.0769,0.0828,0.09,0.1008,0.1037,0.1133,0.1019,0.0843,0.066,0.0341,0.0369,0.0237,0.0176,0.0152,0.0107,0.0439,0.0392,0.0392,0.0393,0.0393,0.0393,0,0.0694,0.071,0.0731,0.0725,0.0751,0.0752,0.0818,0.0866,0.095,0.1075,0.1157,0.119,0.0983,0.0754,0.036,0.0069,-0.0029,-0.0086,-0.0155,-0.0179,0.0134,0.0142,0.0005,0.0005,0.0006,0.0006,0.0006,0.0006,0.0693,0.0712,0.0729,0.077,0.0779,0.0816,0.0852,0.0934,0.1034,0.1197,0.13,0.138,0.1236,0.0466,-0.0095,-0.0241,-0.0443,-0.0484,-0.0565,-0.0377,-0.0352,-0.0328,-0.0337,-0.0572,-0.0572,-0.0849,-0.0852,-0.0855]}],[{"header":{"parameterUnit":"m.s-1","parameterCategory":2,"la1":30.2991,"la2":30.254,"lo1":-89.0895,"lo2":-89.0444,"dy":0.0017,"dx":0.0017,"nx":28,"ny":28,"refTime":"2024-08-09T03:00:00:Z","depth":"2","parameterNumber":2,"parameterNumberName":"U-component_of_CURRENTS"},"data":[0,0,0,0,0,0,0,0,0,0,0,0,0,0,0,0,0,0,0,0,0,0,0,0,0,0,0,0,0,0,0,0,0,0,0,0,0,0,0,0,0,0,0,0,0,0,0,0,0,0,0,0,0,0,0,0,0,0,0.0518,0.0518,0,0.0352,0.0349,0.0345,0.0133,0.0131,0.0129,0.0128,0.0206,0.021,0.0213,0,0,0,0,0,0,0,0,0,0,0,0,0,0.0609,0.0607,0.0518,0.0518,0.0517,0.0353,0.0348,0.0344,0.0133,0.0131,0.0129,0.0127,0.0205,0.0209,0.0214,0,0,0,0,0,0,0,0,0,0,0,0,0,0.0501,0.0607,0.0518,0.0406,0.0396,0.0353,0.0348,0.0343,0.0133,0.0131,0.0128,0.0126,0.0204,0.0209,0.0214,0.0297,0,0,0.0231,0.0233,0,0,0,0,0,0,0,0,0.0507,0.0495,0.0423,0.0414,0.0403,0.0278,0.041,0.0347,0.0134,0.0213,0.0128,0.0125,0.0268,0.0267,0.021,0.0301,0.0304,0.0231,0.0235,0.0237,0.0238,0,0,0,0,0,0,0,0.0515,0.0501,0.0432,0.0423,0.0411,0.0352,0.0332,0.0394,0.0245,0.0205,0.0195,0.0208,0.026,0.0205,0.0212,0.0305,0.0231,0.0236,0.0239,0.0241,0.0568,0.0573,0,0,0,0,0,0,0.058,0.0509,0.0438,0.0429,0.0472,0.0354,0.033,0.0304,0.0239,0.023,0.021,0.0199,0.0197,0.0206,0.0215,0.0402,0.0237,0.0242,0.0245,0.0562,0.0569,0.0575,0,0,0,0,0,0,0.0581,0.0573,0.0445,0.0483,0.0465,0.0357,0.0328,0.0303,0.0302,0.0244,0.0234,0.0245,0.0195,0.0207,0.033,0.0401,0.0244,0.0249,0.0556,0.0564,0.0572,0.0722,0,0,0,0,0,0,0.0584,0.0574,0.0593,0.0486,0.0466,0.0489,0.0332,0.0302,0.0321,0.0305,0.0272,0.027,0.0194,0.0323,0.0336,0.0406,0.0254,0.0549,0.056,0.0569,0.071,0.0734,0.0755,0,0,0,0,0,0.0587,0.0566,0.0593,0.0588,0.0489,0.0496,0.0481,0.0381,0.0327,0.0362,0.0338,0.0274,0.0394,0.0334,0.0347,0.0419,0.0544,0.0557,0.0568,0.07,0.0729,0.0754,0,0,0,0,0,0,0.0566,0.0543,0.0568,0.0534,0.0581,0.0469,0.0459,0.0447,0.0442,0.0435,0.0363,0.0365,0.0484,0.047,0.0403,0.0548,0.0454,0.047,0.055,0.0578,0.0599,0.0466,0.0258,0,0,0,0,0,0.0604,0.06,0.0616,0.0606,0.0628,0.0586,0.0582,0.0562,0.0542,0.053,0.0517,0.0515,0.0537,0.0575,0.059,0.0711,0.0629,0.0765,0.0787,0.0806,0.0712,0.0675,0.0682,0.0614,0.0614,0.0614,0,0,0.0582,0.0586,0.0575,0.0613,0.0599,0.0611,0.0568,0.0602,0.0611,0.0559,0.0573,0.0613,0.0592,0.0673,0.0728,0.0678,0.0813,0.0821,0.0836,0.0729,0.0688,0.0692,0.0697,0.0623,0.0621,0.062,0,0,0.0542,0.0567,0.0568,0.0619,0.0697,0.0677,0.0732,0.0729,0.0729,0.0834,0.0755,0.0831,0.0911,0.0851,0.0843,0.1023,0.0931,0.1086,0.1088,0.1059,0.1061,0.106,0.1066,0.1065,0.1096,0.1097,0.1097,0,0.0524,0.0532,0.0582,0.0616,0.0636,0.0722,0.0742,0.0761,0.0811,0.0816,0.0877,0.0911,0.0951,0.0934,0.0992,0.1058,0.1039,0.0983,0.1077,0.1075,0.1072,0.1076,0.1072,0.1105,0.1104,0.1104,0.1103,0,0.0504,0.053,0.0532,0.0591,0.0641,0.0686,0.0756,0.0822,0.089,0.0898,0.0988,0.1045,0.1035,0.1118,0.1113,0.1124,0.1123,0.1107,0.0984,0.1085,0.1089,0.1082,0.1118,0.1115,0.1112,0.111,0,0,0.0371,0.049,0.0497,0.0536,0.0644,0.0669,0.0723,0.0775,0.0775,0.0917,0.09,0.1016,0.1058,0.1047,0.109,0.109,0.1148,0.1108,0.1102,0.1065,0.1113,0.1111,0.1103,0.1157,0.1155,0.1153,0.1157,0,0.0342,0.0399,0.0464,0.0502,0.0526,0.0621,0.065,0.0724,0.0804,0.083,0.0912,0.0956,0.103,0.1087,0.1093,0.1114,0.112,0.1147,0.1053,0.1048,0.0994,0.109,0.1022,0.1016,0.1149,0.1148,0.1147,0,0.0299,0.0347,0.0394,0.0466,0.0484,0.0525,0.0577,0.0628,0.0682,0.0758,0.0799,0.0859,0.0895,0.0973,0.0987,0.1012,0.1052,0.1075,0.1076,0.0971,0.1029,0.0921,0.0997,0.1134,0.1135,0.1136,0.1137,0,0.0197,0.0279,0.0321,0.0352,0.0453,0.0484,0.0537,0.0601,0.0638,0.0703,0.0747,0.0775,0.0841,0.0855,0.0946,0.0981,0.0939,0.0994,0.1008,0.1012,0.0866,0.0858,0.0952,0.0952,0.0952,0.0952,0.0952,0,0.0121,0.0146,0.029,0.0308,0.0356,0.0439,0.0477,0.0538,0.0593,0.0624,0.0709,0.074,0.0817,0.0828,0.0887,0.0919,0.0898,0.097,0.0989,0.0938,0.0937,0.0936,0.0934,0.0952,0.0952,0.0952,0.0952,0,0.0008,0.0104,0.0146,0.0266,0.032,0.0354,0.0472,0.0482,0.0563,0.06,0.0635,0.0711,0.077,0.0801,0.0837,0.0865,0.0882,0.0888,0.0843,0.0855,0.0999,0.1006,0.0924,0.0923,0.0923,0.0922,0.0922,0,-0.0027,-0.0016,0.0123,0.0173,0.0243,0.0324,0.0382,0.0477,0.0489,0.0589,0.0587,0.0663,0.0733,0.0763,0.0799,0.0846,0.0863,0.0797,0.0833,0.0957,0.0985,0.0993,0.1001,0.0756,0.0754,0.0753,0.0752,0,-0.0119,-0.0064,-0.0023,0.0091,0.0172,0.0255,0.0339,0.0343,0.0446,0.0493,0.0564,0.0634,0.0709,0.0748,0.0786,0.0791,0.0788,0.0774,0.0866,0.0777,0.0799,0.0828,0.084,0.074,0.0741,0.0742,0.0743,0.0743,-0.0179,-0.0168,-0.009,0.0005,0.011,0.0203,0.0233,0.0298,0.0349,0.0449,0.0512,0.0628,0.0653,0.0727,0.0736,0.0734,0.0776,0.075,0.0754,0.0759,0.0741,0.0761,0.0695,0.0695,0.0696,0.0697,0.0698,0,-0.0213,-0.019,-0.0159,-0.0046,0.0023,0.0147,0.0222,0.0238,0.0303,0.0431,0.0537,0.0546,0.0614,0.066,0.0673,0.0692,0.0681,0.0659,0.0643,0.0653,0.0662,0.064,0.0566,0.0567,0.0567,0.0567,0,0,-0.0246,-0.0231,-0.0226,-0.013,-0.0024,0.0086,0.0141,0.02,0.0276,0.038,0.0481,0.0596,0.0636,0.0603,0.0592,0.0608,0.063,0.0581,0.0672,0.066,0.0671,0.0683,0.0656,0,0,0,0,0]},{"header":{"parameterUnit":"m.s-1","parameterCategory":2,"la1":30.2991,"la2":30.254,"lo1":-89.0895,"lo2":-89.0444,"dy":0.0017,"dx":0.0017,"nx":28,"ny":28,"refTime":"2024-08-09T03:00:00:Z","depth":"2","parameterNumber":3,"parameterNumberName":"V-component_of_CURRENTS"},"data":[0,0,0,0,0,0,0,0,0,0,0,0,0,0,0,0,0,0,0,0,0,0,0,0,0,0,0,0,0,0,0,0,0,0,0,0,0,0,0,0,0,0,0,0,0,0,0,0,0,0,0,0,0,0,0,0,0,0,-0.0478,-0.0477,0,-0.0434,-0.0434,-0.0434,-0.0384,-0.0383,-0.0382,-0.0381,-0.0385,-0.0387,-0.0388,0,0,0,0,0,0,0,0,0,0,0,0,0,-0.0529,-0.0528,-0.0478,-0.0477,-0.0476,-0.0434,-0.0434,-0.0434,-0.0384,-0.0383,-0.0381,-0.038,-0.0385,-0.0386,-0.0388,0,0,0,0,0,0,0,0,0,0,0,0,0,-0.0503,-0.0528,-0.0478,-0.0442,-0.0438,-0.0434,-0.0434,-0.0434,-0.0385,-0.0383,-0.0381,-0.0379,-0.0384,-0.0386,-0.0388,-0.0437,0,0,-0.0394,-0.0395,0,0,0,0,0,0,0,0,-0.0504,-0.0502,-0.0449,-0.0445,-0.044,-0.0408,-0.0453,-0.0436,-0.0385,-0.0411,-0.0381,-0.0378,-0.0396,-0.0396,-0.0399,-0.0437,-0.0437,-0.0394,-0.0395,-0.0396,-0.0397,0,0,0,0,0,0,0,-0.0506,-0.0503,-0.0466,-0.0448,-0.0442,-0.0431,-0.0426,-0.045,-0.0419,-0.0408,-0.0403,-0.0391,-0.0394,-0.0397,-0.0399,-0.0437,-0.0394,-0.0396,-0.0397,-0.0398,-0.0398,-0.0397,0,0,0,0,0,0,-0.0503,-0.0505,-0.0467,-0.0464,-0.0463,-0.0432,-0.0426,-0.0425,-0.0417,-0.0413,-0.0392,-0.0388,-0.0395,-0.0397,-0.0399,-0.039,-0.0396,-0.0398,-0.0399,-0.0399,-0.0398,-0.0397,0,0,0,0,0,0,-0.0504,-0.05,-0.0469,-0.0479,-0.0473,-0.0432,-0.0431,-0.0425,-0.0422,-0.0404,-0.04,-0.0395,-0.0394,-0.0396,-0.0396,-0.0392,-0.0399,-0.04,-0.0401,-0.0399,-0.0397,-0.0415,0,0,0,0,0,0,-0.0506,-0.0502,-0.052,-0.0479,-0.0472,-0.047,-0.0432,-0.0425,-0.0415,-0.0409,-0.0406,-0.0404,-0.0392,-0.0393,-0.0398,-0.0395,-0.0402,-0.0402,-0.04,-0.0398,-0.0416,-0.0414,-0.0413,0,0,0,0,0,-0.0509,-0.0539,-0.0522,-0.0518,-0.0493,-0.0471,-0.0468,-0.0435,-0.0417,-0.0426,-0.0401,-0.0404,-0.0381,-0.0395,-0.04,-0.0398,-0.0403,-0.0401,-0.0398,-0.0417,-0.0414,-0.0413,0,0,0,0,0,0,-0.0563,-0.0535,-0.0515,-0.0533,-0.0503,-0.046,-0.0475,-0.0444,-0.0435,-0.0431,-0.0409,-0.0406,-0.039,-0.0396,-0.0411,-0.0385,-0.0386,-0.0385,-0.0398,-0.0396,-0.0395,-0.0406,-0.0404,0,0,0,0,0,-0.0585,-0.0611,-0.0558,-0.0577,-0.0564,-0.0522,-0.0515,-0.0484,-0.0458,-0.0452,-0.0431,-0.041,-0.0388,-0.0395,-0.0375,-0.0395,-0.0405,-0.0387,-0.0385,-0.0384,-0.0393,-0.0406,-0.0408,-0.0388,-0.0388,-0.0388,0,0,-0.0608,-0.0601,-0.0611,-0.0592,-0.0573,-0.0554,-0.0515,-0.0505,-0.0477,-0.0459,-0.0432,-0.0406,-0.0386,-0.0373,-0.0369,-0.0382,-0.0391,-0.0381,-0.0381,-0.039,-0.0404,-0.0406,-0.0408,-0.0387,-0.0387,-0.0387,0,0,-0.0651,-0.0662,-0.0679,-0.0663,-0.0631,-0.0601,-0.0596,-0.0542,-0.0511,-0.048,-0.0441,-0.0417,-0.0395,-0.0375,-0.0364,-0.0353,-0.0369,-0.0339,-0.0365,-0.0378,-0.0381,-0.0384,-0.0394,-0.0398,-0.0356,-0.0356,-0.0356,0,-0.067,-0.068,-0.068,-0.068,-0.0659,-0.0619,-0.0599,-0.0576,-0.052,-0.049,-0.0468,-0.0401,-0.0391,-0.0373,-0.0357,-0.0353,-0.0363,-0.038,-0.038,-0.0383,-0.0385,-0.0396,-0.0399,-0.0356,-0.0356,-0.0356,-0.0356,0,-0.0696,-0.071,-0.0722,-0.0705,-0.0695,-0.0679,-0.0625,-0.0597,-0.0547,-0.0504,-0.045,-0.0424,-0.0388,-0.0373,-0.0366,-0.037,-0.0372,-0.0367,-0.0395,-0.0389,-0.0399,-0.0403,-0.0357,-0.0357,-0.0357,-0.0357,0,0,-0.0673,-0.0727,-0.0721,-0.0711,-0.0696,-0.067,-0.0648,-0.0587,-0.055,-0.0503,-0.045,-0.0418,-0.0403,-0.0389,-0.0377,-0.0395,-0.0419,-0.0399,-0.0399,-0.0427,-0.0452,-0.044,-0.0442,-0.0423,-0.0424,-0.0424,-0.0453,0,-0.0662,-0.0689,-0.0707,-0.0691,-0.0678,-0.0652,-0.0625,-0.058,-0.0532,-0.048,-0.045,-0.0406,-0.0412,-0.0393,-0.0414,-0.0405,-0.0429,-0.0412,-0.0439,-0.0439,-0.0444,-0.0446,-0.0409,-0.0431,-0.0456,-0.0457,-0.0457,0,-0.0635,-0.0655,-0.0663,-0.0658,-0.0645,-0.0631,-0.0565,-0.0538,-0.0491,-0.0456,-0.0438,-0.0411,-0.042,-0.0416,-0.0449,-0.044,-0.0455,-0.0456,-0.0457,-0.0445,-0.0433,-0.0439,-0.0436,-0.0463,-0.0463,-0.0462,-0.0462,0,-0.058,-0.0599,-0.0609,-0.0608,-0.0607,-0.0581,-0.0563,-0.0522,-0.0482,-0.0454,-0.0423,-0.0432,-0.0414,-0.045,-0.0467,-0.0463,-0.0495,-0.0487,-0.049,-0.0489,-0.0462,-0.0458,-0.0516,-0.0516,-0.0516,-0.0516,-0.0515,0,-0.0539,-0.0531,-0.0583,-0.0576,-0.0537,-0.055,-0.0497,-0.0478,-0.045,-0.0401,-0.042,-0.0381,-0.0423,-0.0436,-0.0471,-0.0498,-0.0509,-0.0499,-0.0499,-0.0464,-0.046,-0.049,-0.0486,-0.0517,-0.0516,-0.0516,-0.0516,0,-0.0476,-0.0527,-0.0512,-0.052,-0.0519,-0.0482,-0.0459,-0.0422,-0.0417,-0.0357,-0.035,-0.0347,-0.037,-0.0417,-0.0458,-0.0486,-0.0521,-0.0527,-0.0484,-0.0478,-0.0505,-0.0502,-0.0534,-0.0534,-0.0534,-0.0534,-0.0534,0,-0.0452,-0.0457,-0.0464,-0.0449,-0.0451,-0.0418,-0.0396,-0.0395,-0.036,-0.0319,-0.0281,-0.0291,-0.0262,-0.0341,-0.0391,-0.0459,-0.0507,-0.0497,-0.0479,-0.0512,-0.0508,-0.0505,-0.0502,-0.0448,-0.0447,-0.0447,-0.0446,0,-0.0383,-0.0399,-0.0394,-0.038,-0.0359,-0.0325,-0.0297,-0.0269,-0.0252,-0.0203,-0.0143,-0.0121,-0.017,-0.0217,-0.0331,-0.0374,-0.0487,-0.0484,-0.0536,-0.0446,-0.0433,-0.0428,-0.0428,-0.0441,-0.0441,-0.0442,-0.0442,-0.0442,-0.0325,-0.0301,-0.0318,-0.0294,-0.0264,-0.0223,-0.0185,-0.0145,-0.008,0.0029,0.0006,0.0058,-0.0075,-0.0159,-0.027,-0.0385,-0.0386,-0.0451,-0.0453,-0.0455,-0.0437,-0.0424,-0.0427,-0.0427,-0.0428,-0.0428,-0.0428,0,-0.0257,-0.0251,-0.0231,-0.0204,-0.0158,-0.0162,-0.0106,-0.0044,0.006,0.0152,0.024,0.0135,0.0066,-0.01,-0.0234,-0.0337,-0.033,-0.04,-0.0388,-0.0393,-0.0397,-0.0376,-0.035,-0.035,-0.035,-0.035,0,0,-0.0226,-0.0197,-0.02,-0.0121,-0.0087,-0.0013,0.0031,0.0141,0.0219,0.0313,0.0346,0.0394,0.0127,0.0024,-0.0141,-0.0241,-0.0276,-0.0246,-0.0295,-0.0263,-0.0266,-0.0414,-0.0385,0,0,0,0,0]}],[{"header":{"parameterUnit":"m.s-1","parameterCategory":2,"la1":30.2991,"la2":30.254,"lo1":-89.0895,"lo2":-89.0444,"dy":0.0017,"dx":0.0017,"nx":28,"ny":28,"refTime":"2024-08-09T03:00:00:Z","depth":"4","parameterNumber":2,"parameterNumberName":"U-component_of_CURRENTS"},"data":[0,0,0,0,0,0,0,0,0,0,0,0,0,0,0,0,0,0,0,0,0,0,0,0,0,0,0,0,0,0,0,0,0,0,0,0,0,0,0,0,0,0,0,0,0,0,0,0,0,0,0,0,0,0,0,0,0,0,-0.0148,-0.0148,0,-0.0073,-0.0072,-0.0072,-0.0019,-0.0018,-0.0018,-0.0017,-0.0095,-0.0098,-0.01,0,0,0,0,0,0,0,0,0,0,0,0,0,-0.0176,-0.0176,-0.0148,-0.0148,-0.0147,-0.0073,-0.0072,-0.0071,-0.0019,-0.0018,-0.0018,-0.0017,-0.0094,-0.0097,-0.01,0,0,0,0,0,0,0,0,0,0,0,0,0,-0.0139,-0.0176,-0.0149,-0.0111,-0.0107,-0.0074,-0.0072,-0.0071,-0.0019,-0.0018,-0.0018,-0.0017,-0.0093,-0.0097,-0.0101,-0.0137,0,0,-0.0112,-0.0114,0,0,0,0,0,0,0,0,-0.0141,-0.0138,-0.0118,-0.0114,-0.0109,-0.0054,-0.011,-0.0101,-0.0019,-0.0053,-0.0017,-0.0017,-0.0096,-0.01,-0.0085,-0.0141,-0.0144,-0.0112,-0.0115,-0.0116,-0.0117,0,0,0,0,0,0,0,-0.0144,-0.0141,-0.0119,-0.0117,-0.0111,-0.0074,-0.0069,-0.0107,-0.0082,-0.005,-0.0046,-0.0037,-0.0095,-0.0081,-0.0087,-0.0145,-0.0112,-0.0116,-0.0118,-0.0119,-0.0301,-0.0303,0,0,0,0,0,0,-0.0157,-0.0144,-0.0121,-0.0117,-0.0124,-0.0074,-0.0068,-0.0073,-0.0078,-0.0077,-0.0038,-0.0035,-0.0075,-0.0083,-0.009,-0.0178,-0.0116,-0.012,-0.0122,-0.0298,-0.0301,-0.0304,0,0,0,0,0,0,-0.0158,-0.0157,-0.0124,-0.0127,-0.012,-0.0075,-0.008,-0.0072,-0.0063,-0.0067,-0.0069,-0.0038,-0.0075,-0.0085,-0.0149,-0.018,-0.0121,-0.0125,-0.0295,-0.0299,-0.0303,-0.0328,0,0,0,0,0,0,-0.016,-0.0158,-0.0161,-0.0129,-0.0121,-0.0103,-0.008,-0.0071,-0.0058,-0.0054,-0.0069,-0.0074,-0.0075,-0.0144,-0.0153,-0.0184,-0.0128,-0.0292,-0.0297,-0.0302,-0.0324,-0.0332,-0.0339,0,0,0,0,0,-0.0161,-0.0168,-0.0162,-0.0158,-0.0129,-0.0103,-0.0096,-0.006,-0.0059,-0.0052,-0.0086,-0.0074,-0.0181,-0.0149,-0.0159,-0.0192,-0.029,-0.0296,-0.0301,-0.032,-0.033,-0.0339,0,0,0,0,0,0,-0.0174,-0.0162,-0.0155,-0.0156,-0.0132,-0.0094,-0.0083,-0.0071,-0.0087,-0.0102,-0.0108,-0.0117,-0.0186,-0.0196,-0.0161,-0.0262,-0.0234,-0.0242,-0.0245,-0.0255,-0.0262,-0.0219,-0.0131,0,0,0,0,0,-0.0182,-0.0184,-0.0164,-0.0159,-0.0155,-0.0126,-0.0112,-0.01,-0.0108,-0.011,-0.0126,-0.0166,-0.0217,-0.024,-0.0279,-0.0336,-0.0308,-0.0367,-0.0374,-0.038,-0.0356,-0.0362,-0.0366,-0.0323,-0.0323,-0.0323,0,0,-0.0182,-0.0176,-0.0175,-0.0162,-0.0143,-0.0136,-0.0116,-0.0109,-0.0104,-0.0126,-0.0145,-0.0198,-0.0242,-0.0302,-0.0333,-0.0313,-0.038,-0.0388,-0.0392,-0.0363,-0.0368,-0.0371,-0.0374,-0.0327,-0.0326,-0.0326,0,0,-0.0179,-0.0185,-0.0184,-0.0176,-0.0162,-0.0149,-0.0154,-0.0141,-0.0135,-0.0179,-0.0199,-0.0261,-0.033,-0.0351,-0.0378,-0.0456,-0.0425,-0.0491,-0.0487,-0.0495,-0.0496,-0.0498,-0.0459,-0.0457,-0.0489,-0.0489,-0.0489,0,-0.018,-0.0177,-0.0175,-0.0174,-0.0166,-0.0161,-0.0158,-0.0153,-0.0164,-0.017,-0.0195,-0.0303,-0.0343,-0.0402,-0.0435,-0.0467,-0.0456,-0.0443,-0.0499,-0.05,-0.0501,-0.0461,-0.0458,-0.0491,-0.049,-0.049,-0.049,0,-0.0174,-0.0174,-0.0174,-0.0173,-0.0169,-0.0168,-0.0168,-0.0175,-0.0196,-0.0196,-0.0266,-0.0332,-0.0388,-0.043,-0.0461,-0.0504,-0.0489,-0.0508,-0.0461,-0.0506,-0.0462,-0.0459,-0.0493,-0.0493,-0.0492,-0.0492,0,0,-0.018,-0.0169,-0.0172,-0.0164,-0.0174,-0.0166,-0.0177,-0.0172,-0.0175,-0.0226,-0.0236,-0.0349,-0.0387,-0.042,-0.0474,-0.0489,-0.05,-0.0508,-0.0508,-0.0441,-0.0488,-0.0385,-0.037,-0.0538,-0.0538,-0.0538,-0.045,0,-0.0172,-0.0161,-0.0165,-0.0157,-0.0153,-0.0161,-0.0165,-0.0173,-0.0192,-0.0205,-0.027,-0.0325,-0.0381,-0.0437,-0.046,-0.0499,-0.0494,-0.0519,-0.0477,-0.0474,-0.0355,-0.0364,-0.0538,-0.0447,-0.0446,-0.0445,-0.0445,0,-0.0175,-0.0161,-0.0153,-0.0143,-0.0144,-0.015,-0.0155,-0.0162,-0.0181,-0.0205,-0.026,-0.0303,-0.0356,-0.0401,-0.0437,-0.0458,-0.0468,-0.0482,-0.0479,-0.0362,-0.0364,-0.0399,-0.0437,-0.0438,-0.0438,-0.0439,-0.0439,0,-0.0176,-0.016,-0.0148,-0.0147,-0.014,-0.0146,-0.0155,-0.0172,-0.0177,-0.0212,-0.0227,-0.0284,-0.0322,-0.0356,-0.0377,-0.0426,-0.0373,-0.0441,-0.0339,-0.033,-0.0435,-0.0435,-0.0435,-0.0435,-0.0435,-0.0436,-0.0436,0,-0.0175,-0.0168,-0.0148,-0.0144,-0.0138,-0.0151,-0.016,-0.0173,-0.0196,-0.0194,-0.0242,-0.0241,-0.0318,-0.0297,-0.0334,-0.0289,-0.0333,-0.031,-0.0299,-0.045,-0.0453,-0.0431,-0.0432,-0.0432,-0.0433,-0.0434,-0.0434,0,-0.019,-0.0174,-0.0159,-0.0143,-0.0141,-0.0152,-0.0165,-0.0167,-0.0194,-0.0192,-0.0208,-0.0208,-0.0181,-0.019,-0.0206,-0.0211,-0.0195,-0.0161,-0.0255,-0.0255,-0.0163,-0.0167,-0.0069,-0.0065,-0.0061,-0.0058,-0.0055,0,-0.0194,-0.0188,-0.0162,-0.0153,-0.0151,-0.016,-0.0162,-0.018,-0.0175,-0.0157,-0.0144,-0.0107,-0.0101,-0.0013,-0.0041,-0.0026,-0.0044,-0.0021,-0.016,-0.0125,-0.0125,-0.0135,-0.0144,-0.0049,-0.0048,-0.0047,-0.0046,0,-0.0204,-0.0201,-0.0184,-0.0162,-0.0157,-0.0141,-0.0142,-0.0131,-0.0136,-0.0145,-0.0082,-0.0048,0.0028,0.0039,0.0095,0.008,-0.0042,0.0016,0.0005,-0.0126,-0.01,-0.0106,-0.0119,-0.0033,-0.0035,-0.0036,-0.0037,0,-0.0219,-0.0212,-0.019,-0.017,-0.0152,-0.0121,-0.0122,-0.0092,-0.0086,-0.0065,-0.0025,0.0022,0.0042,0.0103,0.0143,0.0166,0.0112,0.0063,0.0048,0.0034,0.0027,0.0073,0.0227,0,0,0,0,0,-0.023,-0.0214,-0.0195,-0.0159,-0.0135,-0.0119,-0.0098,-0.0096,-0.0078,-0.003,-0.0035,0.0034,0.0104,0.0139,0.0176,0.0181,0.0112,0.0225,0.0047,0.0038,0.0023,0.0006,0,0,0,0,0,0,-0.0233,-0.022,-0.0195,-0.0147,-0.0117,-0.0087,-0.0069,-0.0058,-0.0028,-0.0012,0.0029,0.0039,0.0109,0.008,0.0175,0.0186,0.0076,0.0253,0.0254,0.0047,0.0033,0.0021,-0.0002,0,0,0,0,0]},{"header":{"parameterUnit":"m.s-1","parameterCategory":2,"la1":30.2991,"la2":30.254,"lo1":-89.0895,"lo2":-89.0444,"dy":0.0017,"dx":0.0017,"nx":28,"ny":28,"refTime":"2024-08-09T03:00:00:Z","depth":"4","parameterNumber":3,"parameterNumberName":"V-component_of_CURRENTS"},"data":[0,0,0,0,0,0,0,0,0,0,0,0,0,0,0,0,0,0,0,0,0,0,0,0,0,0,0,0,0,0,0,0,0,0,0,0,0,0,0,0,0,0,0,0,0,0,0,0,0,0,0,0,0,0,0,0,0,0,-0.0086,-0.0086,0,-0.0124,-0.0124,-0.0125,-0.015,-0.015,-0.015,-0.015,-0.018,-0.0181,-0.0182,0,0,0,0,0,0,0,0,0,0,0,0,0,-0.0027,-0.0028,-0.0086,-0.0086,-0.0086,-0.0124,-0.0124,-0.0125,-0.015,-0.015,-0.015,-0.015,-0.018,-0.0181,-0.0182,0,0,0,0,0,0,0,0,0,0,0,0,0,-0.006,-0.0029,-0.0086,-0.0101,-0.0102,-0.0123,-0.0125,-0.0126,-0.015,-0.015,-0.015,-0.015,-0.018,-0.0181,-0.0182,-0.0195,0,0,-0.0187,-0.0187,0,0,0,0,0,0,0,0,-0.0059,-0.0063,-0.0098,-0.01,-0.0101,-0.0129,-0.0115,-0.0147,-0.015,-0.0135,-0.015,-0.0149,-0.0161,-0.0164,-0.0176,-0.0197,-0.0198,-0.0187,-0.0188,-0.0188,-0.0189,0,0,0,0,0,0,0,-0.0056,-0.0061,-0.0104,-0.0098,-0.01,-0.0102,-0.0107,-0.0121,-0.0151,-0.0137,-0.0138,-0.0137,-0.0162,-0.0174,-0.0177,-0.0198,-0.0187,-0.0188,-0.0189,-0.019,-0.0275,-0.0276,0,0,0,0,0,0,-0.0046,-0.0059,-0.0103,-0.0105,-0.0075,-0.0103,-0.0109,-0.0123,-0.0151,-0.0154,-0.0137,-0.0138,-0.0172,-0.0175,-0.0178,-0.0213,-0.0188,-0.019,-0.019,-0.0274,-0.0275,-0.0277,0,0,0,0,0,0,-0.0045,-0.005,-0.0101,-0.0079,-0.0086,-0.0104,-0.012,-0.0124,-0.0149,-0.0151,-0.0154,-0.0159,-0.0172,-0.0176,-0.0208,-0.0214,-0.019,-0.0192,-0.0272,-0.0274,-0.0276,-0.0272,0,0,0,0,0,0,-0.0043,-0.005,-0.0059,-0.0079,-0.0086,-0.0122,-0.012,-0.0125,-0.0146,-0.0149,-0.0171,-0.0173,-0.0172,-0.0206,-0.0209,-0.0215,-0.0193,-0.027,-0.0273,-0.0275,-0.027,-0.0273,-0.0276,0,0,0,0,0,-0.0041,-0.0051,-0.006,-0.0065,-0.0099,-0.0122,-0.0127,-0.014,-0.0148,-0.0163,-0.0183,-0.0173,-0.0225,-0.0208,-0.0212,-0.0218,-0.0269,-0.0272,-0.0275,-0.0269,-0.0273,-0.0276,0,0,0,0,0,0,-0.0029,-0.0055,-0.0065,-0.0083,-0.0104,-0.0125,-0.0134,-0.015,-0.018,-0.0188,-0.0191,-0.0195,-0.0227,-0.0231,-0.0213,-0.0255,-0.0245,-0.0249,-0.0239,-0.0243,-0.0246,-0.0246,-0.0194,0,0,0,0,0,-0.0031,-0.0046,-0.0072,-0.0085,-0.0098,-0.0122,-0.0134,-0.0153,-0.0176,-0.019,-0.0206,-0.0226,-0.0242,-0.0249,-0.0271,-0.029,-0.0292,-0.03,-0.0303,-0.0305,-0.0311,-0.0324,-0.0328,-0.0287,-0.0287,-0.0287,0,0,-0.0022,-0.0042,-0.0047,-0.0083,-0.0101,-0.0128,-0.013,-0.016,-0.0185,-0.0188,-0.023,-0.0243,-0.0254,-0.0279,-0.0293,-0.0281,-0.0318,-0.031,-0.0311,-0.0316,-0.0328,-0.0331,-0.0335,-0.0289,-0.0289,-0.0289,0,0,-0.0014,-0.0041,-0.0051,-0.0077,-0.0112,-0.0137,-0.015,-0.0189,-0.0209,-0.0251,-0.0257,-0.028,-0.031,-0.0315,-0.0319,-0.0357,-0.034,-0.036,-0.0365,-0.0377,-0.038,-0.0382,-0.038,-0.0382,-0.0353,-0.0353,-0.0353,0,-0.0006,-0.003,-0.0056,-0.008,-0.0102,-0.0144,-0.0169,-0.0199,-0.0246,-0.0258,-0.0269,-0.0317,-0.0327,-0.0341,-0.0353,-0.0361,-0.0359,-0.0342,-0.0378,-0.0381,-0.0384,-0.0381,-0.0383,-0.0353,-0.0353,-0.0353,-0.0353,0,-0.0011,-0.0035,-0.0046,-0.0095,-0.0123,-0.0155,-0.02,-0.0235,-0.0268,-0.0292,-0.0329,-0.0351,-0.0372,-0.0378,-0.0374,-0.0394,-0.0383,-0.0383,-0.036,-0.0387,-0.0383,-0.0385,-0.0353,-0.0353,-0.0353,-0.0353,0,0,-0.0,-0.0038,-0.0049,-0.0068,-0.0139,-0.0164,-0.0209,-0.0254,-0.0276,-0.0326,-0.0347,-0.0381,-0.0391,-0.0399,-0.0399,-0.0407,-0.042,-0.0398,-0.0399,-0.0381,-0.0432,-0.0384,-0.0382,-0.0418,-0.0418,-0.0419,-0.0418,0,-0.0005,-0.0038,-0.0063,-0.0108,-0.0137,-0.0183,-0.0218,-0.0265,-0.0302,-0.0336,-0.0363,-0.0391,-0.0398,-0.0405,-0.0417,-0.042,-0.0428,-0.0419,-0.0423,-0.0424,-0.0365,-0.0385,-0.0422,-0.042,-0.042,-0.0421,-0.0421,0,-0.0027,-0.0045,-0.0079,-0.0118,-0.0134,-0.0168,-0.023,-0.0264,-0.0314,-0.0336,-0.0368,-0.039,-0.0414,-0.0422,-0.0443,-0.0432,-0.0439,-0.0442,-0.0442,-0.0401,-0.0381,-0.0393,-0.0426,-0.0425,-0.0425,-0.0425,-0.0424,0,-0.0036,-0.0068,-0.0092,-0.0111,-0.016,-0.018,-0.0215,-0.0268,-0.029,-0.0339,-0.0353,-0.0391,-0.0407,-0.043,-0.0438,-0.0441,-0.0454,-0.0459,-0.0424,-0.042,-0.0464,-0.0461,-0.0486,-0.0486,-0.0486,-0.0486,-0.0486,0,-0.006,-0.0084,-0.0094,-0.0117,-0.0144,-0.0182,-0.0218,-0.0251,-0.0291,-0.031,-0.0354,-0.0363,-0.041,-0.042,-0.0437,-0.0428,-0.0454,-0.0429,-0.042,-0.0462,-0.0459,-0.0464,-0.0462,-0.0486,-0.0486,-0.0486,-0.0486,0,-0.0091,-0.0096,-0.0121,-0.0146,-0.0155,-0.0183,-0.0219,-0.0239,-0.0274,-0.0299,-0.0313,-0.0343,-0.0341,-0.0371,-0.0395,-0.0411,-0.0419,-0.0411,-0.0441,-0.0433,-0.0379,-0.0377,-0.038,-0.0378,-0.0377,-0.0376,-0.0375,0,-0.0114,-0.0127,-0.014,-0.0146,-0.016,-0.0191,-0.0212,-0.0242,-0.0253,-0.0276,-0.028,-0.0285,-0.03,-0.0295,-0.0327,-0.0349,-0.0355,-0.0376,-0.0399,-0.0379,-0.0371,-0.0371,-0.037,-0.0373,-0.0372,-0.0372,-0.0372,0,-0.015,-0.0151,-0.0161,-0.0165,-0.0179,-0.0193,-0.0215,-0.0216,-0.0242,-0.0256,-0.0244,-0.0255,-0.0242,-0.0258,-0.0269,-0.0291,-0.0376,-0.0362,-0.0366,-0.0387,-0.0371,-0.0363,-0.0364,-0.0367,-0.0368,-0.0368,-0.0368,0,-0.0173,-0.0179,-0.0179,-0.0181,-0.0192,-0.02,-0.021,-0.0208,-0.0216,-0.0226,-0.0211,-0.0215,-0.0219,-0.0224,-0.0235,-0.0247,-0.0259,-0.0298,-0.0305,-0.0311,-0.0291,-0.026,-0.0217,0,0,0,0,0,-0.0195,-0.019,-0.0193,-0.0194,-0.0201,-0.0206,-0.0211,-0.0215,-0.0215,-0.02,-0.0207,-0.019,-0.0196,-0.0196,-0.0195,-0.0216,-0.0269,-0.0219,-0.032,-0.034,-0.0346,-0.033,0,0,0,0,0,0,-0.0204,-0.0207,-0.0194,-0.0199,-0.0201,-0.0213,-0.0217,-0.0217,-0.0202,-0.0198,-0.0187,-0.0198,-0.0188,-0.0184,-0.0194,-0.0198,-0.0267,-0.022,-0.022,-0.0337,-0.0342,-0.0347,-0.0332,0,0,0,0,0]}]]